User: anonymous
Location: Norwich
(52.6280°N, 1.3030°E)
Time: 19:17:50
(UTC+01:00)
Language:

APEX - Orbit

View from above orbital plane
View from above orbital plane
View from above satellite
View from above satellite

Ground track
Ground track

The orbit data is extracted from the following two-line orbital elements,

1 23191U 94046A   14274.50903306  .00027727  00000-0  11132-2 0   191
2 23191 069.9199 310.6370 0730230 157.8524 315.5926 14.07072234975460
Epoch (UTC): 01 October 2014 12:13:00
Eccentricity: 0.0730230
inclination: 69.9199°
perigee height: 340 km
apogee height: 1398 km
right ascension of ascending node: 310.6370°
argument of perigee: 157.8524°
revolutions per day: 14.07072234
mean anomaly at epoch: 315.5926°
orbit number at epoch: 97546

The dashed part of the orbit path shows where the satellite is in the earth's shadow,  

DLR